Fernandina Beach, FL

1:15 PM EST on December 06, 2019 (GMT -0500)
Fernandina Beach

Weather History for KFHB - October, 2019

Change the Weather History Date:

Saturday, October 5, 2019

  Actual Average (WUND) Record (WUND)
Temperature  
Mean Temperature 80 °F -  
Max Temperature 86 °F - - (-1)
Min Temperature 73 °F - - (-1)
Cooling Degree Days 14    
Growing Degree Days 30 (Base 50)    
Moisture  
Dew Point 73 °F    
Average Humidity 80    
Maximum Humidity 99    
Minimum Humidity 64    
Precipitation  
Precipitation 0.00 in - - ()
Sea Level Pressure  
Sea Level Pressure 30.04 in    
Wind  
Wind Speed 8 mph (East)    
Max Wind Speed 22 mph    
Max Gust Speed 31 mph    
Visibility 10 miles    
Events      
Averages and records for this station are not official NWS values.
T = Trace of Precipitation, MM = Missing Value Source: NWS Daily Summary

Daily Weather History Graph

Daily Weather History Graph

Search for Another Location

Airport or City:

Astronomy

Oct. 05, 2019 Rise Set
Actual Time 7:21 AM EDT 7:06 PM EDT
Civil Twilight 6:57 AM EDT 7:30 PM EDT
Nautical Twilight 6:29 AM EDT 7:58 PM EDT
Astronomical Twilight 6:01 AM EDT 8:26 PM EDT
Moon 2:24 PM EDT (10/5) No Moon Set
Length of Visible Light 12h 32m
Length of Day
11h 44m
Waxing Crescent, 50% of the Moon is Illuminated
Oct 5
Waxing Crescent
Oct 5
First Quarter
Oct 13
Full
Oct 21
Last Quarter
Oct 27
New

Hourly Weather History & Observations

Time (EDT) Temp. Heat Index Dew Point Humidity Pressure Visibility Wind Dir Wind Speed Gust Speed Precip Events Conditions
12:15 AM 78.4 °F - 73.8 °F 85% 30.00 in 10.0 mi SSE 8.1 mph - N/A   Clear
12:35 AM 78.3 °F - 73.8 °F 86% 30.00 in 10.0 mi SSE 8.1 mph - N/A   Clear
12:55 AM 78.1 °F - 73.9 °F 87% 30.00 in 10.0 mi SSE 8.1 mph - N/A   Clear
1:15 AM 77.7 °F - 73.4 °F 86% 30.00 in 10.0 mi South 6.9 mph - N/A   Clear
1:35 AM 77.7 °F - 72.9 °F 85% 30.00 in 10.0 mi South 6.9 mph - N/A   Clear
1:55 AM 77.4 °F - 72.7 °F 85% 30.00 in 10.0 mi South 5.8 mph - N/A   Clear
2:15 AM 77.0 °F - 72.3 °F 85% 29.99 in 10.0 mi South 4.6 mph - N/A   Scattered Clouds
2:35 AM 76.3 °F - 72.1 °F 87% 29.99 in 10.0 mi South 4.6 mph - N/A   Scattered Clouds
2:55 AM 74.5 °F - 72.0 °F 92% 29.99 in 10.0 mi Calm Calm - N/A   Mostly Cloudy
3:15 AM 75.9 °F - 72.3 °F 89% 29.99 in 10.0 mi Calm Calm - N/A   Mostly Cloudy
3:35 AM 73.9 °F - 72.0 °F 93% 29.99 in 10.0 mi NW 3.5 mph - N/A   Mostly Cloudy
3:55 AM 73.9 °F - 72.7 °F 96% 29.99 in 10.0 mi Calm Calm - N/A   Mostly Cloudy
4:15 AM 73.2 °F - 72.1 °F 96% 29.99 in 10.0 mi Calm Calm - N/A   Mostly Cloudy
4:35 AM 73.6 °F - 72.3 °F 96% 30.00 in 10.0 mi Calm Calm - N/A   Mostly Cloudy
4:55 AM 73.8 °F - 72.9 °F 97% 30.00 in 10.0 mi Calm Calm - N/A   Mostly Cloudy
5:15 AM 73.8 °F - 73.2 °F 98% 30.00 in 10.0 mi North 3.5 mph - N/A   Mostly Cloudy
5:35 AM 73.4 °F - 72.9 °F 98% 30.01 in 10.0 mi Calm Calm - N/A   Scattered Clouds
5:55 AM 74.5 °F - 73.8 °F 98% 30.01 in 10.0 mi Calm Calm - N/A   Mostly Cloudy
6:15 AM 74.3 °F - 73.9 °F 99% 30.01 in 10.0 mi Calm Calm - N/A   Mostly Cloudy
6:35 AM 74.5 °F - 74.1 °F 99% 30.02 in 10.0 mi Calm Calm - N/A   Mostly Cloudy
6:55 AM 73.4 °F - 73.0 °F 99% 30.02 in 10.0 mi Calm Calm - N/A   Scattered Clouds
7:15 AM 74.1 °F - 73.9 °F 99% 30.03 in 10.0 mi Calm Calm - N/A   Mostly Cloudy
7:35 AM 73.8 °F - 73.4 °F 99% 30.04 in 10.0 mi NE 3.5 mph - N/A   Scattered Clouds
7:55 AM 74.7 °F - 71.1 °F 88% 30.04 in 10.0 mi ENE 4.6 mph - N/A   Clear
8:15 AM 77.0 °F - 71.6 °F 83% 30.05 in 10.0 mi East 5.8 mph - N/A   Scattered Clouds
8:35 AM 78.3 °F - 71.4 °F 79% 30.06 in 10.0 mi East 5.8 mph - N/A   Scattered Clouds
8:55 AM 81.1 °F 85.4 °F 71.6 °F 73% 30.06 in 10.0 mi East 9.2 mph - N/A   Scattered Clouds
9:15 AM 81.5 °F 85.7 °F 71.4 °F 71% 30.06 in 10.0 mi East 10.4 mph - N/A   Scattered Clouds
9:35 AM 82.9 °F 87.7 °F 71.2 °F 68% 30.06 in 10.0 mi East 10.4 mph - N/A   Scattered Clouds
9:55 AM 82.9 °F 87.5 °F 71.1 °F 67% 30.07 in 10.0 mi East 10.4 mph - N/A   Scattered Clouds
10:15 AM 83.7 °F 89.4 °F 72.3 °F 69% 30.07 in 10.0 mi ENE 12.7 mph - N/A   Scattered Clouds
10:35 AM 84.0 °F 89.6 °F 72.1 °F 67% 30.07 in 7.0 mi East 8.1 mph - N/A   Scattered Clouds
10:55 AM 84.9 °F 90.7 °F 72.1 °F 65% 30.07 in 10.0 mi East 8.1 mph - N/A   Clear
11:35 AM 85.1 °F 90.8 °F 71.8 °F 64% 30.07 in 10.0 mi East 11.5 mph - N/A   Clear
11:55 AM 85.1 °F 91.5 °F 72.7 °F 66% 30.07 in 10.0 mi ENE 13.8 mph - N/A   Scattered Clouds
12:15 PM 85.8 °F 92.6 °F 73.0 °F 65% 30.08 in 10.0 mi East 11.5 mph - N/A   Scattered Clouds
12:35 PM 85.5 °F 91.8 °F 72.7 °F 65% 30.08 in 10.0 mi ENE 13.8 mph - N/A   Scattered Clouds
12:55 PM 86.0 °F 93.0 °F 73.2 °F 65% 30.07 in 10.0 mi East 12.7 mph - N/A   Scattered Clouds
1:15 PM 85.1 °F 91.5 °F 72.7 °F 66% 30.07 in 10.0 mi ENE 13.8 mph - N/A   Mostly Cloudy
1:30 PM 85.8 °F 93.0 °F 73.2 °F 66% 30.06 in 10.0 mi ENE 15.0 mph - N/A   Mostly Cloudy
1:50 PM 85.3 °F 92.2 °F 73.2 °F 67% 30.06 in 10.0 mi ENE 15.0 mph - N/A   Mostly Cloudy
2:15 PM 85.3 °F 93.0 °F 73.9 °F 69% 30.05 in 10.0 mi East 12.7 mph - N/A   Scattered Clouds
2:55 PM 86.5 °F 94.2 °F 73.6 °F 65% 30.04 in 7.0 mi East 12.7 mph - N/A   Scattered Clouds
3:15 PM 85.5 °F 92.6 °F 73.2 °F 67% 30.04 in 10.0 mi ENE 12.7 mph - N/A   Scattered Clouds
3:35 PM 85.5 °F 92.6 °F 73.4 °F 67% 30.04 in 10.0 mi ENE 15.0 mph - N/A   Clear
3:55 PM 85.3 °F 92.2 °F 73.2 °F 67% 30.03 in 10.0 mi East 12.7 mph - N/A   Scattered Clouds
4:15 PM 85.6 °F 93.0 °F 73.8 °F 67% 30.03 in 10.0 mi East 13.8 mph - N/A   Scattered Clouds
4:35 PM 85.3 °F 92.2 °F 73.4 °F 67% 30.03 in 10.0 mi East 13.8 mph - N/A   Clear
4:55 PM 84.2 °F 90.6 °F 73.2 °F 69% 30.02 in 10.0 mi ENE 12.7 mph 16.1 mph N/A   Clear
5:15 PM 84.2 °F 90.6 °F 73.2 °F 69% 30.03 in 10.0 mi ENE 15.0 mph - N/A   Clear
5:35 PM 83.3 °F 89.3 °F 73.2 °F 71% 30.03 in 10.0 mi ENE 12.7 mph 19.6 mph N/A   Scattered Clouds
5:55 PM 82.2 °F 87.8 °F 73.0 °F 74% 30.03 in 10.0 mi NE 13.8 mph - N/A   Scattered Clouds
6:15 PM 82.2 °F 87.8 °F 73.2 °F 74% 30.03 in 10.0 mi ENE 11.5 mph - N/A   Scattered Clouds
6:35 PM 81.5 °F 86.5 °F 73.0 °F 75% 30.03 in 10.0 mi NE 13.8 mph - N/A   Scattered Clouds
6:55 PM 81.1 °F 86.2 °F 73.2 °F 77% 30.04 in 10.0 mi ENE 11.5 mph - N/A   Mostly Cloudy
7:15 PM 80.8 °F 85.9 °F 73.9 °F 80% 30.04 in 10.0 mi NE 13.8 mph - N/A   Scattered Clouds
7:35 PM 79.9 °F - 75.9 °F 88% 30.04 in 10.0 mi ENE 15.0 mph 21.9 mph N/A   Mostly Cloudy
7:55 PM 80.1 °F 85.5 °F 76.1 °F 88% 30.04 in 10.0 mi ENE 16.1 mph 19.6 mph N/A   Overcast
8:15 PM 79.3 °F - 75.0 °F 87% 30.04 in 10.0 mi ENE 21.9 mph - N/A   Mostly Cloudy
8:35 PM 79.5 °F - 73.4 °F 81% 30.05 in 10.0 mi East 17.3 mph 24.2 mph N/A   Mostly Cloudy
8:55 PM 78.6 °F - 74.1 °F 86% 30.05 in 10.0 mi East 16.1 mph 19.6 mph N/A   Scattered Clouds
9:15 PM 79.0 °F - 72.1 °F 79% 30.05 in 10.0 mi East 15.0 mph 24.2 mph N/A   Clear
9:35 PM 79.3 °F - 70.7 °F 75% 30.06 in 10.0 mi East 18.4 mph 23.0 mph N/A   Clear
9:55 PM 78.4 °F - 71.1 °F 78% 30.05 in 10.0 mi East 17.3 mph - N/A   Clear
10:15 PM 78.4 °F - 72.0 °F 80% 30.07 in 10.0 mi East 18.4 mph - N/A   Clear
10:35 PM 78.3 °F - 73.6 °F 85% 30.07 in 10.0 mi East 16.1 mph 23.0 mph N/A   Clear
10:55 PM 78.1 °F - 73.8 °F 86% 30.08 in 10.0 mi East 16.1 mph 28.8 mph N/A   Scattered Clouds
11:15 PM 78.3 °F - 73.4 °F 85% 30.08 in 10.0 mi East 13.8 mph 20.7 mph N/A   Scattered Clouds
11:35 PM 79.0 °F - 72.7 °F 81% 30.08 in 10.0 mi ESE 15.0 mph 23.0 mph N/A   Mostly Cloudy
11:55 PM 78.6 °F - 73.9 °F 85% 30.09 in 10.0 mi ESE 21.9 mph 31.1 mph N/A   Mostly Cloudy